Current Weather Conditions: station 63103

sailwx.info

Wind from 040 at 4 knots

Wave height 2.0 meters (6 feet), 7 second period

Air temperature 13.7° C

Last reported at 2014-Aug-21 14:00 UTC.
Time now 2014-Aug-21 16:09 UTC

Location: N 61°12' E 001°06'.
View on Google Maps.

See reports from other nearby stations

  
Tides and Currents Weather Stations Pressure Air Temp Water Temp Dewpoint Dewpoint Depression Visibility Wind Speed Wind Dir Waves Ship Positions
date/time (UTC)wind fromknots sea level pressurealtimeterstation pressurevisibilityair tempwater tempwave heightnotes
2014-Aug-21 14:00 040 4 13.7 2.0
2014-Aug-21 13:00 020 4 14.7 2.0
2014-Aug-21 12:00 020 5 13.9 1.9
2014-Aug-21 11:00 030 4 11.8 1.9
2014-Aug-21 10:00 030 8 13.6 2.0
2014-Aug-21 09:00 020 3 12.4 2.3
2014-Aug-21 08:00 330 5 11.8 2.2
2014-Aug-21 07:00 330 4 12.0 2.1
2014-Aug-21 06:00 340 5 12.0 2.2
2014-Aug-21 05:00 340 7 11.9 2.2
2014-Aug-21 04:00 350 7 11.7 2.1
2014-Aug-21 03:00 350 11 11.5 2.5
2014-Aug-21 02:00 350 9 12.0 2.4
2014-Aug-21 01:00 340 9 12.0 2.2
2014-Aug-21 00:00 350 10 11.9 2.2
2014-Aug-20 23:00 320 9 11.5 2.4
2014-Aug-20 22:00 320 10 11.4 2.2
2014-Aug-20 21:00 330 13 11.8 2.7
2014-Aug-20 20:00 350 12 12.2 2.6
2014-Aug-20 19:00 330 11 11.7 2.4
2014-Aug-20 18:00 340 13 11.9 2.7
2014-Aug-20 17:00 350 14 12.2 2.7
2014-Aug-20 16:00 340 16 12.1 2.6
2014-Aug-20 15:00 340 16 12.7 2.5
2014-Aug-20 14:00 340 18 12.7 2.9
2014-Aug-20 13:00 340 19 12.3 2.9
2014-Aug-20 12:00 340 17 12.4 2.9
2014-Aug-20 11:00 340 19 12.2 3.0
2014-Aug-20 10:00 350 20 12.5 3.0
2014-Aug-20 09:00 350 19 12.6 3.0
2014-Aug-20 08:00
2014-Aug-20 07:00
2014-Aug-20 06:00
2014-Aug-20 05:00
2014-Aug-20 04:00
2014-Aug-20 03:00
2014-Aug-20 02:00
2014-Aug-20 01:00
2014-Aug-20 00:00
2014-Aug-19 23:00
2014-Aug-19 22:00
2014-Aug-19 21:00
2014-Aug-19 20:00
2014-Aug-19 19:00
2014-Aug-19 18:00
2014-Aug-19 17:00
2014-Aug-19 16:00